Regional Weather Roundup
Issued by NWS Upton, NY

Current Version | Previous Version | Text Only | Print | Product List | Glossary On
Versions: 1 2 3 4 5 6 7 8 9 10 11 12 13 14 15 16 17 18 19 20 21 22 23 24 25 26 27 28 29 30 31 32 33 34 35 36 37 38 39 40 41 42 43 44 45 46 47 48 49 50
000
ASUS41 KOKX 040804
RWROKX

REGIONAL WEATHER ROUNDUP
NATIONAL WEATHER SERVICE NEW YORK NY
400 AM EDT WED MAY 04 2016

NOTE: "FAIR" INDICATES FEW OR NO CLOUDS BELOW 12,000 FEET WITH NO
SIGNIFICANT WEATHER AND/OR OBSTRUCTIONS TO VISIBILITY.

NYZ071-072-176-178-NJZ106-104-040900-
NEW YORK CITY METRO AREA


CITY           SKY/WX    TMP DP  RH WIND       PRES   REMARKS
CENTRAL PARK   CLOUDY    50  47  89 CALM      29.83S
LAGUARDIA APRT CLOUDY    51  49  92 E5        29.80F
KENNEDY INTL   CLOUDY    50  46  86 E5        29.82S
NEWARK/LIBERTY CLOUDY    50  48  95 E7        29.80S
BRNX BOT. GARD   N/A     48  46  93 NW1       29.82R
TETERBORO      DRIZZLE   50  47  89 SE6       29.79F FOG
$$

NYZ177-179-078>081-040900-
LONG ISLAND NEW YORK

CITY           SKY/WX    TMP DP  RH WIND       PRES   REMARKS
FARMINGDALE    CLOUDY    49  46  90 NE6       29.81R
ISLIP          NOT AVBL
SHIRLEY        CLOUDY    49  46  90 N3        29.81S
RIVERHEAD        N/A     48  46  93 NE2       29.80F
WESTHAMPTON    CLOUDY    44  44 100 NE7       29.81F
EAST HAMPTON   CLOUDY    47  44  88 NE5       29.81F
MONTAUK POINT    N/A     48  44  86 NE6       29.83S
$$

NYZ052-065-067-040900-
HUDSON VALLEY

CITY           SKY/WX    TMP DP  RH WIND       PRES   REMARKS
WHITE PLAINS   CLOUDY    48  46  93 E5        29.80S FOG
NEWBURGH       CLOUDY    50  50 100 SE6       29.80F FOG
MONTGOMERY     CLOUDY    50  49  96 S3        29.79F FOG
POUGHKEEPSIE   CLOUDY    52  49  89 SE5       29.80S FOG
ALBANY         DRZL/FOG  49  47  93 CALM      29.82R VSB 1
$$

NJZ001-105-106-008-010-013-015-019>022-104-040900-
NEW JERSEY

CITY           SKY/WX    TMP DP  RH WIND       PRES   REMARKS
NEWARK/LIBERTY CLOUDY    50  48  95 E7        29.80S
TETERBORO      DRIZZLE   50  47  89 SE6       29.79F FOG
CALDWELL       CLOUDY    50  48  93 CALM      29.80S FOG
MORRISTOWN     CLOUDY    50  48  93 CALM      29.80S FOG
SOMERVILLE     LGT RAIN  50  48  93 SE3       29.78S
SUSSEX         CLOUDY    51  49  92 CALM      29.79F
ANDOVER          N/A     50  49  96 CALM      29.78F
TRENTON        CLOUDY    49  47  93 E6        29.79S
MILLVILLE      LGT RAIN  49  48  97 NE10      29.76F
ATLANTIC CITY  CLOUDY    49  49 100 NE7       29.78R FOG
WRIGHTSTOWN    CLOUDY    49  48  98 NE7       29.77R
TOMS RIVER     CLOUDY    48  45  87 E5        29.79S
BELMAR         CLOUDY    48  47  96 E6        29.80S
$$

PAZ047>061-062-071-040900-
EASTERN PENNSYLVANIA

CITY           SKY/WX    TMP DP  RH WIND       PRES   REMARKS
PHILADELPHIA   LGT RAIN  52  47  83 E7        29.79S
ALLENTOWN      LGT RAIN  52  48  86 SE3       29.78S
SCRANTON       FOG       50  50 100 CALM      29.75F VSB 1/4
$$

CTZ002-004>006-009-010-012-RIZ004-006-007-MAZ004-011-015-040900-
SOUTHERN NEW ENGLAND
 IN CT

CITY           SKY/WX    TMP DP  RH WIND       PRES   REMARKS
BRADLEY INTL   CLOUDY    49  43  80 NE3       29.82F
HARTFORD       CLOUDY    51  43  74 NE5       29.82F
DANBURY        LGT RAIN  48  46  93 E6        29.82S FOG
WTRBRY/OXFORD    N/A     46  43  87 CALM      29.82F
BRIDGEPORT     CLOUDY    50  47  89 N3        29.82S
MERIDEN        CLOUDY    50  42  74 NE5       29.82F
NEW HAVEN      CLOUDY    49  47  93 NE3       29.81F
CHESTER        CLOUDY    46  43  87 NE6       29.81F
GROTON         CLOUDY    48  46  93 NE7       29.82S
WILLIMANTIC    CLOUDY    49  42  77 NE6       29.83F

 IN RI

CITY           SKY/WX    TMP DP  RH WIND       PRES   REMARKS
PROVIDENCE     CLOUDY    46  41  82 NE6       29.84S
BLOCK ISLAND   CLOUDY    46  44  93 NE10      29.83R
WESTERLY       CLOUDY    47  42  83 NE5       29.83R

 IN MA

CITY           SKY/WX    TMP DP  RH WIND       PRES   REMARKS
BOSTON         CLOUDY    46  42  86 NE7       29.86S
WORCESTER      CLOUDY    43  41  93 NE3       29.83F
WESTFIELD      CLOUDY    48  44  86 N3        29.83R
PROVINCETOWN   CLOUDY    44  42  93 NE7       29.86R
NANTUCKET      CLOUDY    47  43  86 NE13      29.82F
$$

ANZ330-335-338-340-345-350-353-355-040900-
COASTAL MARINE OBSERVATIONS


STATION/POSITION TIME  SKY/WX   TEMP    WIND        PRES    VSBY  WAVE
                                AIR SEA DIR/SP/G                  HT/PER
                 (UTC)          (F)     (DEG/KT/KT) (MB)    (MI)  (FT/S)
NY HARB ENTRANCE 0650            49 51   70/ 14/ 16 1008.4          4/ 6
20S FIRE ISLAND  0650            48 49   60/ 14/ 16 1008.2          4/ 6
GREAT SOUTH BAY  0700            49 55   60/ 10/ 14   N/A
23 SSW MONTAUK P 0750            47 47   60/ 14/ 16 1008.5          4/ 6
15 E BARNEGAT LI 0722               50                N/A           5/ 6
HUDSON CANYON    0650            49 49              1007.3          5/ 7
KINGS POINT      0700            49 54              1009.1
EXECUTION ROCKS  NOT AVBL
CENTRAL LI SOUND 0715            48      60/  6/  8   N/A           1
EASTERN LI SOUND 0700            48 48   50/  8/  8   N/A
ROBBINS REEF     0700            49     110/  8/  9 1008.4
$$


>>>>>>>>>>>>>>>>>>>>>>>>>>>> KEY <<<<<<<<<<<<<<<<<<<<<<<<<<<
>                                                          <
>     SKY/WX - SKY CONDITION/PRESENT WEATHER               <
>     TMP    - TEMPERATURE IN FAHRENHEIT                   <
>     DP     - DEWPOINT IN FAHRENHEIT                      <
>     RH     - RELATIVE HUMIDITY IN PERCENT                <
>     WIND   - DIRECTION AND SPEED IN MPH                  <
>     PRES   - MEAN SEA LEVEL PRESSURE IN INCHES OF HG     <
>     WCI    - WIND CHILL INDEX                            <
>     VSB    - VISIBILITY IN MILES                         <
>     HX     - HEAT INDEX                                  <
>     TC     - TEMPERATURE IN CELSIUS                      <
>     VRB    - VARIABLE WIND DIRECTION                     <
>                                                          <
>>>>>>>>>>>>>>>>>>>>>>>>>>>> KEY <<<<<<<<<<<<<<<<<<<<<<<<<<<





USA.gov is the U.S. government's official web portal to all federal, state and local government web resources and services.